Date String (YYYY-MM-DD hh:mm:ss) UTC,Instrument flags,Ambient pressure (hPa),Sample flow (lpm),Bypass flow (lpm),Sample temperature (°C),Ambient temperature (°C),ASC tube jacket temperature (°C),LED temperature (°C),Box temperature (°C),Sample RH (%),Span deviation,Mass concentration (μg/m³),Mass concentration (μg/m³),Mass concentration (μg/m³)
DateTimeUTC,F1_M11,P_M11,Q1_M11,Q2_M11,T1_M11,T2_M11,T3_M11,T4_M11,T5_M11,U1_M11,ZSPAN_M11,X0_M11,X2_M11,X1_M11
2023-02-05 20:00:00,,0821.0,4.98,0.00,24.5,23.4,00.0,33.2,26.4,12.5,0000.0,0012.84,0007.03,0006.52
2023-02-05 20:01:00,,0821.0,5.00,0.00,24.5,23.4,00.0,33.2,26.4,12.8,0000.0,0013.16,0007.09,0006.54
2023-02-05 20:02:00,,0820.9,5.03,0.00,24.5,23.4,00.0,33.3,26.4,12.8,0000.0,0013.40,0007.10,0006.54
2023-02-05 20:03:00,,0820.9,4.98,0.00,24.5,23.5,00.0,33.3,26.4,12.7,0000.0,0013.37,0007.05,0006.51
2023-02-05 20:04:00,,0820.9,5.00,0.00,24.6,23.5,00.0,33.3,26.4,12.8,0000.0,0013.04,0007.00,0006.49
2023-02-05 20:05:00,,0820.9,5.05,0.00,24.6,23.5,00.0,33.3,26.4,13.5,0000.0,0012.49,0006.98,0006.47
2023-02-05 20:06:00,,0820.9,4.95,0.00,24.6,23.5,00.0,33.3,26.5,13.8,0000.0,0012.52,0006.96,0006.47
2023-02-05 20:07:00,,0820.8,5.04,0.00,24.6,23.5,00.0,33.3,26.5,13.4,0000.0,0012.28,0006.95,0006.46
2023-02-05 20:08:00,,0820.7,5.01,0.00,24.6,23.5,00.0,33.3,26.6,14.1,0000.0,0011.83,0006.93,0006.45
2023-02-05 20:09:00,,0820.7,4.98,0.00,24.6,23.5,00.0,33.4,26.6,13.9,0000.0,0011.10,0006.92,0006.44
2023-02-05 20:10:00,,0820.7,5.02,0.00,24.6,23.5,00.0,33.4,26.6,14.4,0000.0,0010.75,0006.91,0006.42
2023-02-05 20:11:00,,0820.7,4.99,0.00,24.6,23.5,00.0,33.4,26.6,14.0,0000.0,0011.23,0006.89,0006.39
2023-02-05 20:12:00,,0820.7,4.97,0.00,24.6,23.5,00.0,33.4,26.6,14.2,0000.0,0011.13,0006.89,0006.37
2023-02-05 20:13:00,,0820.7,5.03,0.00,24.7,23.5,00.0,33.4,26.6,14.3,0000.0,0010.92,0006.88,0006.35
2023-02-05 20:14:00,,0820.7,5.00,0.00,24.7,23.6,00.0,33.4,26.5,14.2,0000.0,0010.89,0006.91,0006.37
2023-02-05 20:15:00,,0820.6,4.96,0.00,24.7,23.6,00.0,33.4,26.6,14.2,0000.0,0011.19,0006.99,0006.39
2023-02-05 20:16:00,,0820.6,5.04,0.00,24.7,23.6,00.0,33.4,26.6,13.9,0000.0,0011.22,0007.01,0006.39
2023-02-05 20:17:00,,0820.6,4.99,0.00,24.7,23.6,00.0,33.4,26.6,13.6,0000.0,0011.14,0007.01,0006.39
2023-02-05 20:18:00,,0820.6,5.00,0.00,24.7,23.6,00.0,33.4,26.6,13.7,0000.0,0011.13,0007.01,0006.39
2023-02-05 20:19:00,,0820.5,5.03,0.00,24.7,23.6,00.0,33.5,26.6,13.8,0000.0,0011.17,0007.01,0006.37
2023-02-05 20:20:00,,0820.4,4.95,0.00,24.7,23.6,00.0,33.5,26.6,13.7,0000.0,0011.12,0006.99,0006.36
2023-02-05 20:21:00,,0820.5,5.02,0.00,24.7,23.6,00.0,33.5,26.6,14.1,0000.0,0010.94,0007.01,0006.36
2023-02-05 20:22:00,,0820.5,5.02,0.00,24.7,23.6,00.0,33.5,26.6,14.1,0000.0,0010.57,0007.03,0006.35
2023-02-05 20:23:00,,0820.4,4.96,0.00,24.7,23.5,00.0,33.5,26.6,14.0,0000.0,0010.61,0006.98,0006.34
2023-02-05 20:24:00,,0820.4,5.01,0.00,24.7,23.5,00.0,33.5,26.6,14.1,0000.0,0010.55,0006.97,0006.33
2023-02-05 20:25:00,,0820.5,5.03,0.00,24.7,23.6,00.0,33.5,26.6,14.1,0000.0,0010.49,0006.95,0006.32
2023-02-05 20:26:00,,0820.5,4.96,0.00,24.7,23.6,00.0,33.5,26.6,13.9,0000.0,0010.28,0006.91,0006.31
2023-02-05 20:27:00,,0820.4,5.00,0.00,24.8,23.6,00.0,33.5,26.7,13.9,0000.0,0010.30,0006.90,0006.31
2023-02-05 20:28:00,,0820.3,5.04,0.00,24.8,23.6,00.0,33.5,26.7,13.7,0000.0,0010.28,0006.88,0006.30
2023-02-05 20:29:00,,0820.3,4.99,0.00,24.8,23.6,00.0,33.5,26.7,13.7,0000.0,0010.34,0006.89,0006.29
2023-02-05 20:30:00,,0820.2,4.98,0.00,24.8,23.6,00.0,33.5,26.7,13.8,0000.0,0010.58,0006.88,0006.28
2023-02-05 20:31:00,,0820.2,5.02,0.00,24.8,23.5,00.0,33.5,26.7,13.6,0000.0,0010.64,0006.88,0006.27
2023-02-05 20:32:00,,0820.2,5.01,0.00,24.8,23.5,00.0,33.5,26.7,13.4,0000.0,0010.57,0006.85,0006.27
2023-02-05 20:33:00,,0820.3,4.95,0.00,24.8,23.6,00.0,33.6,26.7,13.8,0000.0,0010.59,0006.82,0006.26
2023-02-05 20:34:00,,0820.2,5.03,0.00,24.8,23.6,00.0,33.6,26.7,13.6,0000.0,0010.55,0006.80,0006.24
2023-02-05 20:35:00,,0820.2,5.03,0.00,24.8,23.6,00.0,33.6,26.7,13.7,0000.0,0010.52,0006.79,0006.22
2023-02-05 20:36:00,,0820.2,4.95,0.00,24.8,23.6,00.0,33.6,26.7,13.6,0000.0,0010.89,0006.78,0006.20
2023-02-05 20:37:00,,0820.2,4.99,0.00,24.8,23.6,00.0,33.6,26.7,13.7,0000.0,0011.73,0006.76,0006.17
2023-02-05 20:38:00,,0820.2,5.02,0.00,24.8,23.5,00.0,33.6,26.7,13.8,0000.0,0011.80,0006.73,0006.14
2023-02-05 20:39:00,,0820.2,4.97,0.00,24.8,23.6,00.0,33.6,26.7,13.6,0000.0,0011.85,0006.72,0006.11
2023-02-05 20:40:00,,0820.2,5.00,0.00,24.8,23.6,00.0,33.6,26.7,13.7,0000.0,0011.76,0006.68,0006.10
2023-02-05 20:41:00,,0820.2,5.03,0.00,24.8,23.6,00.0,33.6,26.7,13.6,0000.0,0011.56,0006.67,0006.10
2023-02-05 20:42:00,,0820.2,5.01,0.00,24.8,23.6,00.0,33.6,26.7,13.6,0000.0,0011.68,0006.70,0006.09
2023-02-05 20:43:00,,0820.0,4.96,0.00,24.8,23.6,00.0,33.6,26.7,13.1,0000.0,0011.82,0006.72,0006.07
2023-02-05 20:44:00,,0819.9,5.05,0.00,24.8,23.6,00.0,33.6,26.8,13.2,0000.0,0011.87,0006.71,0006.07
2023-02-05 20:45:00,,0819.9,5.00,0.00,24.9,23.6,00.0,33.6,26.8,13.4,0000.0,0012.22,0006.70,0006.07
2023-02-05 20:46:00,,0819.9,4.95,0.00,24.9,23.7,00.0,33.6,26.8,13.2,0000.0,0012.56,0006.67,0006.06
2023-02-05 20:47:00,,0819.9,5.03,0.00,24.9,23.7,00.0,33.6,26.8,13.6,0000.0,0012.29,0006.67,0006.07
2023-02-05 20:48:00,,0819.9,5.00,0.00,24.9,23.7,00.0,33.6,26.8,13.4,0000.0,0011.36,0006.65,0006.09
2023-02-05 20:49:00,,0819.9,4.96,0.00,24.9,23.7,00.0,33.7,26.8,13.3,0000.0,0011.23,0006.63,0006.10
2023-02-05 20:50:00,,0819.9,5.03,0.00,24.9,23.7,00.0,33.7,26.8,13.3,0000.0,0011.11,0006.61,0006.10
2023-02-05 20:51:00,,0820.0,5.02,0.00,24.9,23.7,00.0,33.7,26.8,13.2,0000.0,0011.16,0006.63,0006.11
2023-02-05 20:52:00,,0819.9,4.96,0.00,24.9,23.8,00.0,33.7,26.8,13.2,0000.0,0011.33,0006.70,0006.13
2023-02-05 20:53:00,,0819.9,5.03,0.00,24.9,23.8,00.0,33.7,26.8,13.4,0000.0,0011.32,0006.74,0006.15
2023-02-05 20:54:00,,0819.9,5.02,0.00,24.9,23.8,00.0,33.7,26.8,13.2,0000.0,0011.22,0006.73,0006.15
2023-02-05 20:55:00,,0819.9,4.96,0.00,24.9,23.8,00.0,33.7,26.8,13.2,0000.0,0011.11,0006.72,0006.15
2023-02-05 20:56:00,,0819.8,5.04,0.00,25.0,23.8,00.0,33.7,26.9,13.3,0000.0,0010.66,0006.74,0006.16
2023-02-05 20:57:00,,0819.7,5.01,0.00,25.0,23.9,00.0,33.7,26.9,13.4,0000.0,0010.63,0006.79,0006.18
2023-02-05 20:58:00,,0819.7,4.94,0.00,25.0,23.9,00.0,33.7,26.9,13.4,0000.0,0011.42,0006.81,0006.19
2023-02-05 20:59:00,,0819.7,5.00,0.00,25.0,23.9,00.0,33.7,26.9,13.4,0000.0,0011.54,0006.84,0006.20
